Skip Page Navigation
NASA JPL Caltech
NASA Logo - Jet Propulsion Laboratory + View the NASA Portal
+ Near-Earth Object (NEO) Program
Search JPL
JPL Home Earth Solar System Stars & Galaxies Technology
JPL Solar System Dynamics
BODIES ORBITS EPHEMERIDES TOOLS PHYSICAL DATA DISCOVERY FAQ SITE MAP
JPL Small-Body Database Browser
Search: [ help ]  
118214 Agnesediboemia (1996 AG1)
Classification: Main-belt Asteroid          SPK-ID: 2118214
Ephemeris | Orbit Diagram | Orbital Elements | Physical Parameters | Discovery Circumstances | Close-Approach Data ]

[ show orbit diagram ]
Orbital Elements at Epoch 2457400.5 (2016-Jan-13.0) TDB
Reference: JPL 8 (heliocentric ecliptic J2000)
 Element Value Uncertainty (1-sigma)   Units 
e .1958925604752264 8.2898e-08  
a 3.117133192612616 5.391e-08 au
q 2.506509990169413 2.546e-07 au
i 6.542789598390376 8.2353e-06 deg
node 85.09468202590709 7.4407e-05 deg
peri 296.5521501380397 7.8538e-05 deg
M 303.5240826451886 2.9162e-05 deg
tp 2457715.849582038003
(2016-Nov-23.34958204)
0.00016881 JED
period 2010.163886678492
5.50
5.2148e-05
1.428e-07
d
yr
n .1790898754005816 4.646e-09 deg/d
Q 3.727756395055819 6.4471e-08 au
  Orbit Determination Parameters
   # obs. used (total)      305  
   data-arc span      6743 days (18.46 yr)  
   first obs. used      1996-01-12  
   last obs. used      2014-06-29  
   planetary ephem.      DE431  
   SB-pert. ephem.      SB431-BIG16  
   condition code      0  
   fit RMS      .55364  
   data source      ORB  
   producer      Otto Matic  
   solution date      2015-Jun-04 20:30:33  

Additional Information
 Earth MOID = 1.51681 au 
 Jupiter MOID = 1.75944 au 
 T_jup = 3.177 
[ show covariance matrix ]

Ephemeris | Orbit Diagram | Orbital Elements | Physical Parameters | Discovery Circumstances | Close-Approach Data ]

Physical Parameter Table
Parameter Symbol Value Units Sigma Reference Notes
absolute magnitude H 14.8 mag n/a MPO257550  

118214 Agnesediboemia           Discovered 1996 Jan. 12 by J. Ticha and M. Tichy at Klet.
Agnese di Boemia (1211-1282), princess Anežka of the Přemyslid family, devoted her life to charity and religious works. She was the founder of a hospital and two convents that were among the first Gothic buildings in Prague. She was canonized in 1989.
NOTE: some special characters may not display properly (any characters within {} are an attempt to place the proper accent above a character)
Reference: 20120703/MPCPages.arcLast Updated: 2012-07-09

[ show close-approach data ]
Alternate Designations
 1996 AG1 = 2000 RH54 
Ephemeris | Orbit Diagram | Orbital Elements | Physical Parameters | Discovery Circumstances | Close-Approach Data ]
ABOUT SSD CREDITS/AWARDS PRIVACY/COPYRIGHT GLOSSARY LINKS
FirstGov 2016-Feb-09 22:32 UT
(server date/time)  
NASA Home Page
Site Manager:   Ryan S. Park
Webmaster  Alan B. Chamberlin